STARLINK-11528, 62521

Orbit data source: Space-Track

STARLINK-11528, 62521 is a payload satellite owned by SpaceX/Seattle (US) in LEO that was launched on Wed, 08 Jan 2025 UTC via an FALCON 9 launch vehicle from the Air Force Eastern Test Range (AFETR). Payload-class satellites include a variety of spacecraft equipped with specific instruments for various scientific and technological missions. These include communications satellites like Starlink; space stations such as the ISS; scientific satellites like the Hubble; Earth observation satellites from companies like Planet Labs, Umbra, and HawkEye 360; GPS; miniature CubeSats for education and research; and military/defense satellites.

Loading next visibility...
Identifier
62521, 2025-004L
Orbit
LEO
Last TLE update
18 hours ago
Origin
Manufacturer
SpaceX/Seattle
Mission
Operational Commercial Communications
Bus & Motor
STARLINK V2M, Unknown motor
Mass
730 kg wet, ~700 kg dry
Launch date (UTC)
2025-01-08 (6 months ago)
Launch vehicle
FALCON 9
Launch site
Air Force Eastern Test Range (AFETR)
Object type
Payload
Rocket body
Debris
Shape & HBR
Box + 2 Pan, 29 m
Radar Cross Section
36.964 m², Large (>1 m²)

Expand to show TLE details & history

TLE from 18 hours ago
0 STARLINK-11528
1 62521U 25004L   25181.63958928  .00250368  00000-0  18863-2 0  9996
2 62521  43.0002 150.3539 0001741 277.6169  82.4501 15.70968314 27568
Epoch: 2025-06-30T15:21Z
TLE epoch observation values (Epoch: 2025-06-30T15:21:00.513Z)
Latitude
-0.00003°
Longitude
1.15523°
Altitude
355.746 km
Speed
7.698 km/s
True Right ascension
10h 01m 24s
True Declination
0° 00' 00"
Sunlit
Object was in daylight at epoch
Visualization orbit readout
Latitude
-8.62549°
Longitude
-12.74256°
Altitude
355.868 km
Speed
7.697 km/s
Apparent Right ascension
09h 09m 32s
Apparent Declination
-23° 42' 33"
Sunlit
Object is in daylight
Visualization observer readout
Local Sidereal Time
21:14:35
Azimuth
4.14° NNE
Elevation
-73.758°
Doppler factor
1
Orbital elements
Apogee altitude
359.283 km
Perigee altitude
356.937 km
Semi-major axis
6,736.247 km
Eccentricity
0.00017
Inclination
43.0002°
RAAN
150.3539°
Arg. of periapsis
277.6169°
True anomaly
Unknown
Mean anomaly
82.4501°
Eccentric anomaly
Unknown
Mean motion
3.92569 °/min
Orbital period
91.7 mins
BSTAR
0.0018863
Loading maneuver chart data...
Loading SW <> Apogee altitude chart data...
Loading historical data...
Loading historical data...
Loading historical data...
Loading historical data...
Loading historical data...
Loading historical data...
Loading historical data...

STARLINK-11528 Visibility forecast

Observer location: undefined°, undefined°

Span
Click to sort rows by Start time (UTC) header in descending order
Start Az.
Max El. time (UTC)
Max El. Az.
Max El.
End time (UTC)
End Az.
4 mins2025-07-02 01:08:17.179Z216.884° SW2025-07-02 01:10:17.179Z148.821° SSE32.195°2025-07-02 01:12:17.179Z87.941° E
4 mins2025-07-02 04:21:17.179Z307.193° NW2025-07-02 04:22:17.179Z349.206° N35.722°2025-07-02 04:25:17.179Z83.13° E
4 mins2025-07-02 05:57:17.179Z270.813° WNW2025-07-02 05:58:17.179Z234.105° WSW37.65°2025-07-02 06:01:17.179Z125.957° SE
|